SCP
-0 0 0 0 0 0 0 0 0 0 0 0 0 0 0 0 0 0 0 -0 -0 -0 -0 -0 -0 -0 -0 -0 -0 -0 -0 0 0 0 0 0 0 0 0 -0 -0 -0 -0
0 0 0 0 0 0 0 0 0 0 0 0 0 0 0 0 0 0 0 -0 -0 -0 -0 -0 -0 -0 -0 -0 -0 -0 -0 0 0 0 0 0 0 0 0 0 -0 -0 -0
0 0 0 0 0 0 0 0 0 0 0 0 0 0 0 0 0 0 0 0 0 -0 -0 -0 -0 -0 -0 -0 -0 -0 -0 0 0 0 0 0 0 0 0 0 0 0 -0
0 0 0 0 0 0 0 0 0 0 0 0 0 0 0 0 0 0 0 0 0 0 -0 -0 -0 -0 -0 -0 -0 -0 -0 0 0 0 0 0 0 0 0 0 0 0 0
0 0 0 0 0 0 0 0 0 0 0 0 0 0 0 0 0 0 0 0 0 0 0 -0 -0 -0 -0 -0 -0 -0 -0 -0 -0 -0 0 0 0 0 0 0 0 0 0
0 -0 0 0 0 0 0 0 0 0 0 0 0 0 0 0 0 0 0 0 0 0 0 0 -0 -0 -0 -0 -0 -0 -0 -0 -0 -0 -0 -0 0 0 0 0 0 0 0
0 -0 -0 0 0 0 0 0 0 0 0 0 0 0 0 0 0 0 0 0 0 0 0 0 0 -0 -0 -0 -0 -0 -0 -0 -0 -0 -0 -0 -0 0 0 0 0 0 0
0 -0 -0 0 0 0 0 0 0 0 0 0 0 0 0 0 0 0 0 0 0 0 0 0 -0 -0 -0 -0 -0 -0 -0 -0 -0 -0 -0 -0 -0 -0 0 0 0 0 0
0 -0 -0 0 0 0 0 0 0 0 0 0 0 0 0 0 0 0 0 0 0 0 0 0 0 -0 -0 -0 -0 -0 -0 -0 -0 -0 -0 -0 -0 -0 -0 0 0 0 0
-0 -0 -0 0 0 0 0 0 0 0 0 0 0 0 0 0 0 0 0 0 0 0 0 0 0 0 0 0 0 0 -0 -0 -0 -0 -0 -0 -0 -0 -0 0 0 0 0
-0 -0 -0 0 0 0 0 0 0 0 0 0 0 0 0 0 0 0 0 0 0 0 0 0 0 0 0 0 0 0 0 0 -0 -0 0 0 0 0 -0 -0 0 0 0
-0 -0 -0 0 0 0 0 0 0 0 0 0 0 0 0 0 0 0 0 0 0 0 0 0 0 0 0 0 0 0 0 0 0 0 0 0 0 0 0 0 0 0 0
-0 -0 -0 0 0 0 0 0 0 0 0 0 0 0 0 0 0 0 0 0 0 0 0 0 0 0 0 0 0 0 0 0 0 0 0 0 0 0 0 0 0 0 0
0 0 0 0 0 0 0 0 0 0 0 0 0 0 0 0 0 0 0 0 0 0 0 0 0 0 0 0 0 0 0 0 0 0 0 0 0 0 0 0 0 0 0
0 0 0 0 0 0 0 0 0 0 0 0 0 0 0 0 0 0 0 0 0 0 0 0 0 0 0 0 0 0 0 0 0 0 0 0 0 0 0 0 0 0 0
0 0 0 0 0 0 0 0 0 0 0 0 0 0 0 0 0 0 0 0 0 0 0 0 0 0 0 0 0 0 0 0 0 0 0 0 0 0 0 0 0 0 0
0 0 0 0 0 0 0 0 0 0 0 0 0 0 0 0 0 0 0 0 0 0 0 0 0 0 0 0 0 0 0 0 0 0 0 0 0 0 0 0 0 0 0
0 0 0 1 1 1 0 0 0 0 0 0 0 0 0 0 0 0 0 0 0 0 0 0 0 0 0 0 0 0 0 0 0 0 0 0 0 0 0 0 0 0 0
0 0 1 1 1 1 1 1 1 1 1 1 0 0 0 0 0 0 0 0 0 0 0 0 0 0 0 0 0 0 0 0 0 0 0 0 0 0 0 0 0 0 0
1 1 1 1 1 1 1 1 1 1 1 1 1 1 1 1 1 1 0 0 0 0 0 0 0 0 0 0 0 0 0 0 0 0 0 0 0 0 0 0 0 0 0
0 1 1 1 1 1 2 2 1 1 1 1 1 1 1 1 1 1 0 0 0 0 0 0 0 0 0 0 0 0 0 0 0 0 0 0 0 0 0 0 0 0 0
0 1 1 1 1 2 2 2 2 2 2 1 1 1 1 1 1 0 0 0 0 0 0 0 0 0 0 0 0 0 0 0 0 0 0 0 0 0 0 0 0 0 0
0 1 1 1 2 2 2 2 2 2 2 1 1 1 0 0 0 0 0 0 0 0 0 0 0 0 0 0 0 0 0 0 0 0 0 0 0 0 0 0 0 0 0
1 1 1 1 1 1 2 2 2 2 1 1 0 0 0 0 0 0 0 0 0 0 0 0 0 0 0 0 0 0 0 0 0 0 0 0 0 0 0 0 0 0 0
1 1 1 1 1 1 1 1 1 1 1 0 0 0 0 0 0 0 0 0 0 0 0 0 0 0 0 0 0 0 0 0 0 0 0 0 0 0 0 0 0 0 0
1 1 1 1 1 1 1 0 0 0 0 0 0 0 0 0 0 0 0 0 0 0 0 0 0 0 0 0 0 0 0 0 0 0 0 0 0 0 0 0 0 0 0
Wind_Speed
7 9 17 17 16 15 14 13 13 13 13 13 14 14 13 12 11 10 10 9 8 7 6 7 8 9 8 9 9 8 8 8 9 9 8 8 8 7 8 9 9 7 10
12 11 17 17 17 15 15 14 13 13 12 12 13 13 12 11 10 9 9 8 8 7 6 5 6 7 7 7 8 7 6 6 6 7 7 5 5 5 6 7 7 5 8
13 11 15 17 17 16 15 14 13 13 12 12 12 12 12 12 11 9 8 8 7 6 6 5 4 5 6 6 6 6 5 4 4 5 5 3 1 2 4 5 7 7 7
14 11 12 18 17 16 15 14 13 13 12 12 11 11 10 11 11 10 8 7 7 6 5 4 4 4 5 5 6 6 5 4 4 4 2 2 1 2 5 5 6 6 7
11 10 13 20 19 18 17 15 14 13 12 11 11 10 9 8 8 8 7 6 6 5 4 5 4 4 4 4 6 6 5 5 5 4 2 3 3 4 6 7 7 7 7
10 10 13 20 19 18 17 16 15 13 12 11 9 8 8 7 6 6 6 5 5 5 5 5 5 4 4 3 4 4 5 5 5 3 3 4 4 7 9 9 10 9 9
9 8 11 19 18 18 17 16 15 13 12 10 9 8 7 7 6 5 5 5 5 5 4 4 4 4 5 5 5 5 5 6 4 3 4 4 5 8 12 13 12 11 11
9 8 9 18 18 17 16 16 14 13 11 10 9 8 7 7 7 7 6 6 6 5 5 5 5 5 6 6 7 7 7 7 6 4 3 4 7 9 11 14 13 13 13
7 6 6 8 13 16 16 15 14 12 11 10 9 8 8 8 7 7 7 7 8 7 7 7 7 7 7 7 8 8 8 9 7 4 5 4 8 11 11 13 15 15 15
6 6 6 6 6 7 8 13 13 12 11 10 10 9 9 9 8 8 7 8 10 10 10 9 9 9 9 9 9 10 10 9 7 6 5 6 11 12 11 11 14 15 15
8 6 5 6 5 5 5 8 10 11 11 10 9 10 9 4 4 5 7 9 11 12 12 11 12 12 11 10 12 12 11 5 6 6 6 10 13 13 13 12 13 15 15
12 10 7 6 6 6 5 4 4 4 5 6 4 4 3 3 3 5 7 12 14 14 14 13 13 12 10 5 9 11 5 7 6 6 7 14 14 14 14 13 13 12 13
12 11 10 8 7 7 5 4 3 3 4 4 5 4 3 3 3 4 3 6 8 10 7 8 8 5 6 5 6 5 7 6 5 6 8 15 14 14 14 13 13 11 12
10 11 9 8 7 7 6 5 5 4 3 3 4 5 4 3 4 4 4 4 4 4 5 5 4 6 7 8 8 9 9 7 6 5 7 15 15 14 14 13 12 12 12
12 12 11 11 10 8 6 5 5 5 5 6 5 6 7 5 5 5 4 4 5 4 5 5 6 6 7 7 7 9 9 10 9 7 6 13 15 14 14 13 12 13 13
11 12 11 12 12 10 8 6 5 5 5 6 6 8 8 6 6 5 5 5 5 5 5 5 6 5 5 5 7 8 9 9 9 8 7 9 14 15 14 13 12 11 12
11 10 11 12 11 11 10 9 6 6 6 6 6 7 8 7 7 6 5 5 5 4 5 4 5 4 5 5 8 8 7 8 8 9 8 7 8 11 13 13 12 10 11
10 11 13 13 13 13 11 10 7 7 7 7 6 6 8 8 8 6 5 5 6 4 4 4 4 4 5 5 6 6 6 6 9 9 9 8 7 6 8 12 12 11 12
11 11 13 13 13 14 12 10 9 8 8 7 6 5 6 7 7 6 5 6 5 4 4 5 4 4 5 6 6 6 6 7 8 8 9 9 8 7 6 8 11 12 13
5 6 7 9 9 9 7 6 6 6 6 5 5 5 6 5 6 5 4 5 4 4 4 4 5 5 5 5 6 6 6 7 7 7 8 7 7 8 7 7 6 7 12
4 4 4 6 7 5 4 5 5 5 5 4 4 6 6 5 4 4 3 3 3 4 5 5 4 5 5 3 3 5 6 7 8 8 7 6 7 7 6 7 6 6 6
6 5 4 5 6 6 6 5 3 3 3 3 4 4 4 4 3 2 1 1 2 3 5 5 5 4 4 3 3 3 4 4 5 5 5 6 6 4 5 6 6 6 6
4 4 3 3 4 6 5 3 2 2 2 2 3 3 3 3 3 2 1 2 3 3 5 6 6 6 5 4 5 5 4 5 4 3 2 2 2 2 3 4 6 7 7
5 4 2 1 1 2 3 5 7 5 3 2 2 2 2 2 1 2 1 2 3 2 4 5 5 4 5 5 3 5 6 3 3 3 3 2 2 2 3 4 5 6 7
4 4 3 3 2 1 1 3 3 4 3 3 3 3 1 0 0 1 1 1 1 1 1 3 3 3 3 4 4 3 5 4 3 3 4 4 3 3 3 4 5 6 6
4 4 4 3 3 3 2 1 3 6 6 5 3 3 1 0 0 2 2 2 1 1 1 2 2 2 2 2 2 2 2 2 3 4 5 4 4 4 4 4 5 5 5
Wind_Direction
167 159 160 152 146 141 134 129 124 119 117 114 114 116 119 123 127 128 127 126 125 120 111 104 105 106 107 109 110 109 111 116 119 116 110 107 110 112 114 110 106 106 110
156 158 159 154 149 146 141 137 133 128 125 121 118 119 122 124 126 125 126 127 127 127 122 118 118 116 114 116 120 123 124 126 131 129 119 108 116 122 126 123 120 121 122
149 156 158 158 156 153 149 145 142 139 135 132 129 130 131 134 139 139 135 133 134 137 135 133 140 140 135 135 138 141 142 145 148 147 119 77 51 143 146 141 139 137 134
150 154 157 161 161 160 157 155 153 150 146 143 140 139 139 141 145 151 152 152 154 156 153 151 157 158 163 166 165 164 165 172 183 179 135 164 212 209 199 171 166 163 158
149 154 165 164 166 167 165 164 163 161 158 152 145 143 144 145 147 153 161 166 168 172 184 186 184 180 182 193 185 183 189 201 212 215 194 213 231 235 209 198 197 192 179
150 158 172 167 170 171 171 172 171 170 167 162 153 150 154 158 162 165 173 184 189 195 205 199 201 205 209 211 209 211 217 227 233 243 247 244 236 238 230 219 215 213 201
151 161 177 171 173 175 175 176 176 174 173 170 166 167 172 177 182 188 197 213 219 214 220 226 223 224 231 236 239 240 244 249 246 243 258 267 254 251 247 229 220 222 218
154 159 173 175 176 179 179 179 180 180 179 180 180 185 193 199 205 203 211 223 234 234 229 236 241 243 248 250 249 249 249 255 262 255 256 267 273 276 259 229 216 220 223
148 151 166 176 179 182 184 184 186 187 187 190 193 196 205 218 223 227 231 236 240 239 237 241 250 258 262 260 258 258 258 260 259 254 260 259 270 278 277 238 219 220 222
150 154 162 164 169 176 186 192 191 192 195 199 204 205 211 223 234 243 241 246 249 248 243 245 252 256 257 258 260 263 264 267 266 261 255 255 264 270 275 260 237 233 230
174 167 165 162 156 155 167 193 194 199 201 206 214 218 216 217 239 260 256 253 256 259 256 255 258 259 258 257 257 259 263 253 256 263 261 258 260 266 269 266 258 247 239
186 183 174 167 157 154 169 168 168 178 187 195 195 215 206 197 217 240 258 259 260 262 262 262 258 258 259 251 258 260 253 252 253 258 259 258 254 257 265 265 269 252 239
186 187 183 172 164 164 163 159 170 173 177 187 190 193 200 214 224 237 245 262 265 268 264 264 266 256 248 245 248 249 250 254 252 254 259 265 264 260 261 264 266 246 236
183 189 181 176 176 180 174 175 180 183 181 184 190 190 197 222 231 232 238 248 252 250 248 246 245 250 257 256 249 252 255 252 250 251 258 266 266 262 262 267 260 243 241
186 188 184 182 185 187 186 186 189 197 196 191 193 201 205 216 232 235 239 245 252 248 246 246 243 246 256 262 257 251 253 253 254 251 256 265 271 269 267 267 263 257 252
192 193 189 191 191 189 193 196 198 203 209 203 205 211 212 216 226 229 238 244 249 247 246 243 242 245 254 259 265 259 255 257 257 254 252 262 266 270 268 262 261 261 256
194 195 195 199 198 196 198 199 200 205 210 218 220 217 218 218 221 223 231 242 249 250 249 249 251 251 257 257 262 264 264 260 256 255 254 252 258 262 266 264 260 255 247
194 198 201 202 199 200 201 200 202 203 205 214 218 215 217 217 215 216 225 238 238 231 230 242 249 254 256 256 260 265 267 266 260 258 258 250 244 247 258 263 260 253 246
207 208 208 208 202 201 201 201 202 202 204 203 199 200 207 208 205 201 218 234 235 233 234 239 243 235 254 260 264 270 266 264 266 265 260 253 245 241 243 254 256 255 253
233 238 240 231 223 208 202 204 205 203 201 190 185 191 198 207 205 199 219 240 242 247 253 249 254 247 247 259 271 272 270 266 265 261 258 253 248 244 241 244 250 255 253
346 327 286 250 239 211 196 196 197 200 195 192 191 188 187 191 186 185 212 247 253 255 265 270 271 268 256 235 250 271 270 265 258 257 249 243 243 241 236 237 242 244 251
348 329 285 247 240 225 214 206 199 188 190 183 172 160 159 154 137 133 152 279 280 276 277 270 257 261 255 213 225 266 289 296 268 252 246 242 245 235 237 243 246 245 246
317 304 282 257 244 243 232 210 188 161 135 139 143 125 98 92 87 75 13 300 282 269 275 275 263 253 259 246 213 223 245 253 293 296 277 267 257 235 244 253 253 253 248
229 222 210 216 239 257 237 213 199 183 171 160 130 111 104 97 89 67 0 302 285 278 280 285 284 273 270 276 254 224 231 242 242 297 316 317 318 269 260 259 258 255 248
220 207 179 151 137 128 236 212 180 123 110 109 107 113 127 105 78 53 3 349 354 353 340 347 340 313 275 277 271 246 235 230 227 238 281 313 321 286 268 268 268 265 253
253 246 216 168 144 123 136 150 142 129 134 143 144 160 161 100 17 13 12 22 23 49 32 15 9 355 338 303 279 242 224 216 213 221 240 255 273 283 282 273 268 265 259